DW9837 Weather Reports


Display with metric or nautical units.
time (UTC)temp
F
wind
direction
speed
MPH
gust
MPH
rain 1hr
in
rain 24hr
in
rain mn
in
humidity
%
barometer
mb
20260903233057 74 296 0.0 1.0 0.00 0.14 0.14 85 1011.6
20260903231605 75 296 0.0 2.0 0.00 0.14 0.14 85 1011.4
20260903224554 76 291 0.0 5.0 0.00 0.14 0.14 83 1011.7
20260903223053 76 267 0.0 3.0 0.00 0.14 0.14 82 1011.7
20260903221552 77 270 0.0 2.0 0.00 0.14 0.14 81 1011.7
20260903220053 78 211 1.0 3.0 0.00 0.14 0.14 80 1011.6
20260903214559 78 286 1.0 5.0 0.00 0.14 0.14 79 1011.8
20260903213054 79 307 2.0 5.0 0.00 0.14 0.14 78 1011.9
20260903211551 80 189 1.0 3.0 0.00 0.14 0.14 76 1011.8
20260903210049 81 210 1.0 5.0 0.00 0.14 0.14 76 1011.8
20260903204551 81 172 1.0 5.0 0.00 0.14 0.14 77 1011.9
20260903203052 80 89 2.0 5.0 0.00 0.14 0.14 76 1011.6
20260903201544 80 272 2.0 5.0 0.00 0.14 0.14 77 1011.7
20260903200048 78 311 1.0 4.0 0.00 0.14 0.14 81 1011.8
20260903194544 78 288 1.0 5.0 0.00 0.14 0.14 81 1012.2
20260903193039 78 278 1.0 4.0 0.00 0.14 0.14 81 1012.4
20260903191539 78 293 0.0 5.0 0.00 0.14 0.14 82 1012.4
20260903190037 77 310 2.0 6.0 0.00 0.14 0.14 80 1012.7
20260903184536 78 272 1.0 6.0 0.00 0.14 0.14 79 1012.6
20260903183035 78 253 2.0 5.0 0.00 0.14 0.14 78 1012.6
20260903181535 80 291 0.0 5.0 0.00 0.14 0.14 74 1012.7
20260903180050 79 94 0.0 7.0 0.00 0.14 0.14 77 1012.7
20260903174533 80 307 2.0 6.0 0.00 0.14 0.14 74 1012.6
20260903173031 79 306 1.0 7.0 0.00 0.14 0.14 77 1012.7
20260903171527 78 315 2.0 5.0 0.00 0.14 0.14 80 1013.3
20260903170026 77 256 1.0 7.0 0.00 0.14 0.14 81 1013.1
20260903164524 76 317 2.0 10.0 0.00 0.14 0.14 83 1013.3
20260903163037 76 194 2.0 8.0 0.00 0.14 0.14 84 1013.3
20260903161517 75 298 1.0 5.0 0.00 0.14 0.14 86 1013.4
20260903160016 75 210 2.0 10.0 0.00 0.14 0.14 86 1013.5
20260903154514 75 276 1.0 6.0 0.00 0.14 0.14 87 1013.8
20260903153013 76 272 1.0 5.0 0.00 0.14 0.14 86 1013.9
20260903151509 74 258 1.0 5.0 0.00 0.14 0.14 89 1013.9
20260903150008 74 293 1.0 5.0 0.00 0.14 0.14 89 1014.0
20260903144507 74 288 0.0 4.0 0.00 0.14 0.14 89 1014.3
20260903143011 75 230 1.0 3.0 0.00 0.14 0.14 88 1014.3
20260903141503 74 104 0.0 3.0 0.00 0.14 0.14 91 1014.1
20260903140100 73 289 0.0 2.0 0.00 0.14 0.14 93 1014.0
20260903134555 72 213 0.0 2.0 0.00 0.14 0.14 93 1014.3
20260903133052 72 131 0.0 1.0 0.00 0.14 0.14 95 1014.6
20260903131551 72 326 0.0 1.0 0.00 0.14 0.14 95 1014.7
20260903130111 71 312 0.0 1.0 0.00 0.14 0.14 95 1015.1
20260903124549 71 272 0.0 3.0 0.00 0.14 0.14 95 1014.9
20260903123049 71 220 0.0 2.0 0.00 0.14 0.14 95 1015.0
20260903121547 71 225 0.0 2.0 0.00 0.14 0.14 96 1015.0
20260903120039 71 270 0.0 2.0 0.00 0.14 0.14 96 1015.1
20260903114537 71 286 0.0 1.0 0.00 0.14 0.14 96 1015.2
20260903113038 71 288 0.0 2.0 0.00 0.14 0.14 96 1015.2
20260903111536 71 288 0.0 3.0 0.00 0.14 0.14 96 1015.3
20260903110104 71 281 0.0 2.0 0.00 0.14 0.14 96 1015.4
20260903104524 71 152 0.0 1.0 0.00 0.14 0.14 96 1015.1
20260903103023 71 152 0.0 1.0 0.00 0.14 0.14 96 1014.7
20260903101522 71 360 0.0 0.0 0.00 0.14 0.14 96 1014.6
20260903100026 71 60 0.0 1.0 0.00 0.14 0.14 96 1014.3
20260903094542 70 157 0.0 1.0 0.00 0.14 0.14 96 1014.4
20260903093016 70 162 0.0 0.0 0.01 0.14 0.14 95 1014.6
20260903091514 69 170 0.0 2.0 0.14 0.14 0.14 95 1014.7
20260903090013 69 153 0.0 2.0 0.14 0.14 0.14 95 1014.7
20260903084510 68 134 1.0 5.0 0.14 0.14 0.14 95 1014.8
20260903083009 68 159 2.0 4.0 0.13 0.13 0.13 94 1014.8
20260903081621 68 184 2.0 4.0 0.00 0.00 0.00 93 1015.1
20260903080005 68 125 0.0 3.0 0.00 0.00 0.00 92 1015.5
20260903074504 68 156 2.0 4.0 0.00 0.00 0.00 92 1015.5
20260903073001 68 244 1.0 3.0 0.00 0.00 0.00 90 1015.5
20260903071600 68 123 0.0 3.0 0.00 0.00 0.00 89 1015.4
20260903070057 68 151 0.0 2.0 0.00 0.00 0.00 88 1015.8
20260903064554 68 92 0.0 1.0 0.00 0.00 0.00 88 1016.5
20260903063053 68 125 0.0 1.0 0.00 0.00 0.00 87 1016.5
20260903061554 68 164 0.0 3.0 0.00 0.00 0.00 87 1016.9
20260903060051 67 156 0.0 2.0 0.00 0.00 0.00 87 1017.0
20260903054550 67 218 1.0 5.0 0.00 0.00 0.00 87 1017.2
20260903053103 68 149 1.0 5.0 0.00 0.00 0.00 86 1017.6
20260903051544 68 151 0.0 4.0 0.00 0.00 0.00 85 1017.7
20260903050041 68 174 1.0 4.0 0.00 0.00 0.00 84 1017.9
20260903044550 68 127 0.0 1.0 0.00 0.00 0.00 82 1018.2
20260903043039 68 219 0.0 2.0 0.00 0.00 0.00 81 1018.3
20260903041537 68 128 0.0 3.0 0.00 0.00 0.00 80 1018.2
20260903040034 67 107 2.0 5.0 0.00 0.00 0.00 80 1018.0
20260903034533 67 166 1.0 5.0 0.00 0.00 0.00 79 1017.9
20260903033031 67 145 1.0 4.0 0.00 0.00 0.00 80 1018.2
20260903031529 67 99 0.0 3.0 0.00 0.00 0.00 80 1018.7
20260903030038 67 78 0.0 4.0 0.00 0.00 0.00 80 1018.7
20260903024538 67 104 0.0 3.0 0.00 0.00 0.00 79 1019.0
20260903023028 67 165 0.0 3.0 0.00 0.00 0.00 77 1019.1
20260903021532 67 246 0.0 3.0 0.00 0.00 0.00 77 1019.1
20260903020031 66 215 0.0 2.0 0.00 0.00 0.00 79 1018.8
20260903014526 66 138 0.0 2.0 0.00 0.01 0.00 78 1019.3
20260903013025 66 206 0.0 2.0 0.00 0.01 0.00 77 1019.3
20260903011537 66 125 0.0 6.0 0.00 0.01 0.00 76 1019.4
20260903010024 66 74 0.0 3.0 0.00 0.01 0.00 76 1019.6
20260903004530 66 99 1.0 6.0 0.00 0.01 0.00 76 1019.3
20260903003022 67 345 0.0 4.0 0.00 0.01 0.00 75 1019.0
20260903001521 67 92 0.0 5.0 0.00 0.01 0.00 74 1019.1
20260903000023 68 92 1.0 4.0 0.00 0.01 0.00 73 1019.3
20260902234521 68 202 0.0 4.0 0.00 0.01 0.00 73 1019.4